Homer, AK

4:43 PM AKDT on May 25, 2017 (GMT -0800)
Homer

Weather History for PAHO - July, 2013

Change the Weather History Date:

Tuesday, July 16, 2013

  Actual Average Record
Temperature  
Mean Temperature 59 °F -  
Max Temperature 64 °F 60 °F 68 °F (1940)
Min Temperature 54 °F 47 °F 38 °F (1950)
Degree Days  
Heating Degree Days 6    
Growing Degree Days 9 (Base 50)    
Moisture  
Dew Point 50 °F    
Average Humidity 73    
Maximum Humidity 86    
Minimum Humidity 61    
Precipitation  
Precipitation 0.00 in - - ()
Sea Level Pressure  
Sea Level Pressure 30.24 in    
Wind  
Wind Speed 3 mph (WSW)    
Max Wind Speed 13 mph    
Max Gust Speed -    
Visibility 10 miles    
Events      
Averages and records for this station are not official NWS values.
T = Trace of Precipitation, MM = Missing Value Source: NWS Daily Summary

Daily Weather History Graph

Daily Weather History Graph

Search for Another Location

Airport or City:

Trip Planner

Search our weather history database for the weather conditions in past years. The results will help you decide how hot, cold, wet, or windy it might be!

Date:

Astronomy

Jul. 16, 2013 Rise Set
Actual Time 5:15 AM AKDT 11:07 PM AKDT
Civil Twilight 4:01 AM AKDT 12:19 AM AKDT
Nautical Twilight Sun does not set Sun does not set
Astronomical Twilight Sun does not set Sun does not set
Moon 4:21 PM AKDT (7/16) 12:42 AM AKDT (7/16)
Length of Visible Light 20h 17m
Length of Day
17h 51m
First Quarter, 58% of the Moon is Illuminated
Jul 16
First Quarter
Jul 22
Full
Jul 29
Last Quarter
Aug 6
New
Aug 14
First Quarter

Hourly Weather History & Observations

Time (AKDT) Temp. Dew Point Humidity Pressure Visibility Wind Dir Wind Speed Gust Speed Precip Events Conditions
12:53 AM 54.0 °F 50.0 °F 86% 30.27 in 10.0 mi Calm Calm - N/A   Overcast
1:53 AM 54.0 °F 48.9 °F 83% 30.27 in 10.0 mi Calm Calm - N/A   Overcast
2:53 AM 54.0 °F 48.9 °F 83% 30.26 in 10.0 mi Calm Calm - N/A   Overcast
3:53 AM 54.0 °F 50.0 °F 86% 30.26 in 10.0 mi Calm Calm - N/A   Mostly Cloudy
4:53 AM 54.0 °F 48.9 °F 83% 30.25 in 10.0 mi Calm Calm - N/A   Mostly Cloudy
5:53 AM 54.0 °F 48.9 °F 83% 30.25 in 10.0 mi Calm Calm - N/A   Overcast
6:53 AM 54.0 °F 48.9 °F 83% 30.26 in 10.0 mi Calm Calm - N/A   Overcast
7:35 AM 57.2 °F 50.0 °F 77% 30.26 in 10.0 mi NNE 3.5 mph - N/A   Mostly Cloudy
7:53 AM 57.0 °F 50.0 °F 77% 30.26 in 10.0 mi Calm Calm - N/A   Mostly Cloudy
8:13 AM 57.2 °F 50.0 °F 77% 30.25 in 10.0 mi Calm Calm - N/A   Mostly Cloudy
8:53 AM 57.9 °F 50.0 °F 75% 30.25 in 10.0 mi SE 3.5 mph - N/A   Overcast
9:53 AM 61.0 °F 52.0 °F 72% 30.25 in 10.0 mi SSE 3.5 mph - N/A   Mostly Cloudy
10:53 AM 62.1 °F 50.0 °F 65% 30.25 in 10.0 mi SW 4.6 mph - N/A   Clear
11:53 AM 62.1 °F 51.1 °F 67% 30.25 in 10.0 mi Variable 6.9 mph - N/A   Clear
12:53 PM 63.0 °F 50.0 °F 63% 30.25 in 10.0 mi West 10.4 mph - N/A   Clear
1:53 PM 62.1 °F 51.1 °F 67% 30.25 in 10.0 mi SW 12.7 mph - N/A   Clear
2:53 PM 64.9 °F 51.1 °F 61% 30.25 in 10.0 mi WSW 10.4 mph - N/A   Clear
3:53 PM 63.0 °F 50.0 °F 63% 30.24 in 10.0 mi WSW 11.5 mph - N/A   Clear
4:53 PM 64.0 °F 51.1 °F 63% 30.23 in 10.0 mi West 9.2 mph - N/A   Clear
5:53 PM 63.0 °F 52.0 °F 67% 30.22 in 10.0 mi West 8.1 mph - N/A   Mostly Cloudy
6:53 PM 64.0 °F 51.1 °F 63% 30.21 in 10.0 mi WSW 6.9 mph - N/A   Mostly Cloudy
7:53 PM 61.0 °F 51.1 °F 70% 30.21 in 10.0 mi WSW 6.9 mph - N/A   Mostly Cloudy
8:53 PM 61.0 °F 51.1 °F 70% 30.20 in 10.0 mi West 8.1 mph - N/A   Scattered Clouds
9:53 PM 60.1 °F 51.1 °F 72% 30.20 in 10.0 mi West 6.9 mph - N/A   Clear
10:53 PM 59.0 °F 51.1 °F 75% 30.20 in 10.0 mi West 3.5 mph - N/A   Clear
11:53 PM 55.9 °F 50.0 °F 80% 30.20 in 10.0 mi Calm Calm - N/A   Clear